Location: Bennemühlen
(52.5740°N, 9.7135°E)
Time: 01:56:52
(UTC+00:00)

Cosmos 2082 Rocket - Pass Details

Date: 19 May 2025
Orbit: 831 x 853 km, 71.0° (Epoch: 23 June)

Event Time Altitude Azimuth Distance (km) Brightness Sun altitude
Exits shadow 21:41:41 16° 189° (S) 2,044 3.7 -14.5°
Maximum altitude 21:46:05 59° 114° (ESE) 961 2.3 -14.8°
Drops below altitude 10° 21:51:37 10° 36° (NE) 2,459 5.1 -15.1°
Sets 21:54:06 0° 33° (NNE) 3,400 5.9 -15.2°
